Weather History for KBDR - December, 2013

Change the Weather History Date:

Tuesday, December 3, 2013

  Actual Average Record
Temperature  
Mean Temperature 41 °F 40 °F  
Max Temperature 49 °F 47 °F 64 °F (2009)
Min Temperature 32 °F 33 °F 14 °F (1966)
Degree Days  
Heating Degree Days 24 25  
Month to date heating degree days 71 75  
Since 1 July heating degree days 1024 1049  
Cooling Degree Days 0 0  
Month to date cooling degree days 0 0  
Year to date cooling degree days 1003 825  
Moisture  
Dew Point 35 °F    
Average Humidity 78    
Maximum Humidity 96    
Minimum Humidity 60    
Precipitation  
Precipitation 0.00 in 0.12 in 1.38 in (1991)
Month to date precipitation 0.01 0.36  
Year to date precipitation 32.34 39.77  
Snow  
Snow 0.00 in 0.10 in 1.40 in (1952)
Month to date snowfall 0.0 0.3  
Since 1 July snowfall 0.1 1.0  
Snow Depth 0.00 in    
Sea Level Pressure  
Sea Level Pressure 29.92 in    
Wind  
Wind Speed 4 mph (NW)    
Max Wind Speed 9 mph    
Max Gust Speed 12 mph    
Visibility 8 miles    
Events      
T = Trace of Precipitation, MM = Missing Value Source: NWS Daily Summary

Daily Weather History Graph

Daily Weather History Graph

Search for Another Location

Airport or City:

Trip Planner

Search our weather history database for the weather conditions in past years. The results will help you decide how hot, cold, wet, or windy it might be!

Date:

Astronomy

Dec. 03, 2013 Rise Set
Actual Time 7:00 AM EST 4:23 PM EST
Civil Twilight 6:29 AM EST 4:54 PM EST
Nautical Twilight 5:55 AM EST 5:29 PM EST
Astronomical Twilight 5:22 AM EST 6:02 PM EST
Moon 7:26 AM EST 5:24 PM EST
Length of Visible Light 10h 24m
Length of Day
9h 23m
New Moon, 1% of the Moon is Illuminated
Dec 3
New Moon
Dec 9
First Quarter
Dec 17
Full
Dec 25
Last Quarter
Jan 1
New

Hourly Weather History & Observations

Time (EST) Temp. Windchill Dew Point Humidity Pressure Visibility Wind Dir Wind Speed Gust Speed Precip Events Conditions
12:52 AM 36.0 °F 29.6 °F 34.0 °F 93% 29.89 in 7.0 mi North 8.1 mph - N/A   Clear
1:52 AM 35.1 °F 31.0 °F 33.1 °F 92% 29.91 in 7.0 mi North 4.6 mph - N/A   Clear
2:52 AM 34.0 °F 29.8 °F 32.0 °F 92% 29.92 in 6.0 mi North 4.6 mph - N/A   Clear
3:52 AM 33.1 °F - 32.0 °F 96% 29.91 in 5.0 mi Calm Calm - N/A   Clear
4:52 AM 32.0 °F - 30.9 °F 96% 29.91 in 6.0 mi Calm Calm - N/A   Clear
5:52 AM 33.1 °F 28.7 °F 32.0 °F 96% 29.91 in 6.0 mi North 4.6 mph - N/A   Clear
6:52 AM 33.1 °F 26.9 °F 30.9 °F 92% 29.90 in 7.0 mi NNE 6.9 mph - N/A   Clear
7:52 AM 35.1 °F - 34.0 °F 96% 29.91 in 6.0 mi Calm Calm - N/A   Clear
8:52 AM 39.9 °F - 34.0 °F 79% 29.92 in 7.0 mi Calm Calm - N/A   Clear
9:52 AM 43.0 °F 41.3 °F 35.1 °F 74% 29.93 in 8.0 mi NW 3.5 mph - N/A   Clear
10:52 AM 46.0 °F 41.9 °F 34.0 °F 63% 29.92 in 10.0 mi NNW 8.1 mph - N/A   Clear
11:52 AM 48.9 °F - 35.1 °F 59% 29.91 in 10.0 mi West 5.8 mph - N/A   Clear
12:52 PM 48.0 °F - 39.0 °F 71% 29.89 in 8.0 mi SW 5.8 mph - N/A   Clear
1:52 PM 48.0 °F - 39.0 °F 71% 29.88 in 9.0 mi SSW 8.1 mph - N/A   Clear
2:52 PM 48.9 °F - 41.0 °F 74% 29.88 in 7.0 mi SW 6.9 mph - N/A   Clear
3:52 PM 48.0 °F - 41.0 °F 77% 29.90 in 7.0 mi WSW 5.8 mph - N/A   Partly Cloudy
4:52 PM 45.0 °F - 39.9 °F 82% 29.92 in 7.0 mi Calm Calm - N/A   Clear
5:52 PM 45.0 °F 42.6 °F 37.0 °F 74% 29.95 in 10.0 mi NNW 4.6 mph - N/A   Clear
6:52 PM 43.0 °F 41.3 °F 34.0 °F 71% 29.96 in 10.0 mi NW 3.5 mph - N/A   Clear
7:52 PM 42.1 °F 39.2 °F 34.0 °F 73% 29.97 in 10.0 mi NNW 4.6 mph - N/A   Clear
8:52 PM 41.0 °F - 34.0 °F 76% 29.98 in 9.0 mi Calm Calm - N/A   Clear
9:52 PM 37.9 °F - 32.0 °F 79% 29.98 in 7.0 mi Calm Calm - N/A   Clear
10:52 PM 37.9 °F - 32.0 °F 79% 29.99 in 8.0 mi Calm Calm - N/A   Clear
11:52 PM 34.0 °F - 30.0 °F 85% 30.01 in 6.0 mi Calm Calm - N/A   Clear